Wind_Speed
29 28 25 20 15 12 10 7 6 5 4 3 3 4 6 5 4 2 1 3 6 7 8 9 10 12 15 16 17 18 17 15 15 18 21 24 25 25 25 24 23 23 23 24 26 26 26 28 27 25 25 25 26 24 22 22 22 20 18 16 15 15 16 16 16 16 16 17 17 18 18 18 17 17 17 17 18 19 19 20 21 22 22 22 22 21
31 30 26 22 18 18 15 11 10 8 7 6 3 3 4 4 4 2 2 4 6 7 8 9 9 11 14 15 16 17 16 14 14 16 20 22 23 24 23 23 22 22 22 22 24 25 26 29 30 29 27 26 26 25 25 24 22 19 18 17 17 16 17 17 17 17 17 17 17 18 18 18 18 18 18 18 18 19 20 20 21 21 21 20 20 20
32 30 26 25 23 22 19 16 13 12 9 7 6 5 4 3 1 4 4 5 6 6 7 8 9 10 12 14 15 17 15 13 13 16 19 20 21 22 22 22 22 23 22 21 22 25 27 28 29 30 30 28 26 25 25 24 22 19 17 16 17 17 18 18 18 18 18 18 18 19 19 19 19 20 20 20 20 20 20 19 19 19 19 19 18 19
31 28 29 28 27 25 22 19 16 14 11 9 8 7 5 4 3 3 5 7 5 5 7 8 10 10 11 13 15 16 15 13 13 15 17 18 18 20 21 21 22 23 22 21 23 26 27 28 30 31 31 30 28 26 25 23 22 20 17 16 16 17 18 19 19 19 20 20 21 21 22 22 22 21 21 22 22 21 20 19 18 18 19 19 19 19
28 28 32 32 29 27 25 22 19 16 13 10 11 9 8 6 4 5 6 8 7 5 8 9 10 11 10 12 14 15 15 14 14 14 15 15 15 18 19 21 21 22 22 22 24 26 28 30 31 32 32 31 29 27 26 24 21 20 19 17 16 17 18 19 20 20 21 22 23 24 25 25 25 24 23 23 23 22 21 20 18 18 18 19 19 19
27 30 35 33 31 29 28 25 20 17 14 11 12 11 10 8 2 4 6 8 9 7 8 10 10 12 11 12 14 16 15 12 12 12 13 13 14 16 19 20 21 21 22 23 24 27 29 31 33 33 32 30 29 28 27 25 22 20 20 20 19 19 19 19 20 21 21 22 23 24 25 26 27 27 26 25 25 24 22 21 19 18 19 19 20 21
27 32 35 33 32 31 29 27 21 18 16 14 14 13 12 10 6 3 5 7 10 10 11 12 13 13 12 12 13 14 12 9 10 10 10 12 14 16 19 20 20 22 23 24 26 29 31 32 33 33 31 29 28 28 27 25 23 21 21 21 21 22 22 22 21 21 22 22 23 24 25 26 27 28 28 27 27 25 23 22 21 21 21 22 24 25
23 31 37 36 34 33 31 26 22 21 20 17 17 15 13 12 8 6 6 6 9 12 13 14 14 14 11 10 10 10 9 9 9 9 9 11 14 16 20 20 20 22 25 26 27 29 31 32 34 33 31 29 28 27 26 24 23 22 22 23 23 23 24 24 24 24 24 24 24 25 26 27 27 28 28 28 28 26 24 23 23 23 24 26 27 28
21 27 37 39 39 37 32 27 24 25 24 21 19 17 15 13 10 8 8 7 11 14 15 14 14 15 12 9 8 8 9 9 8 9 10 12 15 18 21 21 21 23 25 27 28 30 31 33 34 32 30 29 28 27 25 23 22 22 23 24 25 25 25 26 26 26 26 27 27 27 27 27 28 28 28 28 28 27 25 23 24 25 27 29 30 31
22 25 35 41 42 40 34 30 29 28 26 24 22 18 17 16 12 11 11 9 13 16 16 16 17 17 14 9 7 8 11 10 8 10 12 14 16 19 22 22 22 25 27 28 29 29 32 33 34 32 30 28 28 27 25 23 22 23 24 25 26 26 26 26 27 27 28 28 28 27 27 28 28 28 28 28 28 27 26 25 26 27 30 31 32 32
23 25 33 40 41 39 36 33 31 29 27 27 23 19 19 19 16 14 13 13 16 18 17 17 18 19 17 9 6 8 10 11 11 14 16 17 19 21 23 23 25 27 28 28 28 30 32 33 33 32 30 28 28 27 24 22 22 23 25 26 27 27 26 26 25 26 27 28 28 27 27 27 28 28 28 27 27 28 27 27 29 30 32 33 33 32
22 23 30 36 37 37 37 35 33 30 29 29 25 20 21 21 20 17 15 17 20 19 18 19 19 19 18 10 6 9 10 12 14 16 18 19 20 22 24 25 27 28 27 28 28 30 32 34 33 31 29 28 28 27 24 21 22 24 25 26 26 25 25 25 24 25 25 25 26 27 26 27 28 28 28 27 27 28 29 30 32 33 33 33 33 32
22 22 25 31 35 37 38 37 35 32 30 30 27 22 21 22 22 20 19 20 22 20 19 20 21 20 17 10 8 10 11 12 15 16 18 19 20 22 24 27 28 27 27 28 28 31 34 34 33 31 29 28 29 28 26 22 22 23 24 24 23 22 22 23 24 25 24 23 25 27 27 28 30 30 29 28 28 29 31 33 34 35 34 34 33 33
23 22 22 26 32 37 40 40 37 33 31 30 28 25 24 25 24 22 21 22 22 20 20 21 21 21 17 14 13 11 11 13 15 16 17 20 22 22 24 27 27 26 27 28 29 32 34 35 33 31 30 30 31 31 27 24 23 23 23 22 21 21 21 22 23 23 22 23 25 28 29 30 31 31 30 30 30 31 32 34 36 36 35 35 35 35
21 19 19 21 27 34 40 41 38 35 33 31 30 28 28 28 25 23 23 23 22 20 20 21 22 21 19 17 15 12 11 13 15 16 18 21 23 24 25 27 27 28 29 29 30 33 35 35 32 31 32 33 33 30 28 27 26 24 21 21 21 21 21 22 22 21 22 25 27 29 30 31 32 32 32 32 31 32 34 36 36 36 36 37 37 37
19 18 19 21 24 29 36 41 39 38 36 34 33 33 31 28 25 23 23 24 22 20 21 22 21 21 20 19 16 12 11 14 17 18 20 23 24 25 27 28 28 29 29 30 32 34 37 35 32 33 36 34 29 28 29 29 25 20 18 19 21 21 21 21 22 22 24 27 28 29 32 34 34 34 34 33 33 34 36 37 37 37 38 39 40 41
17 18 20 21 20 23 31 37 40 40 38 36 35 33 28 26 25 23 22 22 22 22 23 23 20 19 20 20 18 13 13 17 19 20 22 24 25 26 27 28 30 29 30 31 32 38 41 34 29 34 35 29 25 25 27 25 19 15 17 19 20 21 22 22 23 23 25 27 29 31 33 35 35 35 34 34 35 36 37 38 38 39 40 41 42 43
15 16 18 19 18 21 26 32 38 40 40 38 35 29 25 23 22 21 20 21 21 22 24 25 23 22 23 22 18 16 17 19 20 22 24 25 26 27 28 29 30 29 31 32 35 45 44 30 26 35 33 27 24 23 24 22 18 16 18 20 19 20 22 23 24 25 27 29 30 31 33 33 34 34 34 34 35 37 38 40 41 42 43 44 44 44
14 15 16 16 16 19 24 29 33 36 38 37 33 29 26 24 21 20 19 18 17 18 19 19 19 19 20 19 17 18 20 20 22 23 25 26 27 27 27 29 30 29 32 35 41 48 40 26 28 34 30 28 25 22 23 22 18 19 20 20 19 21 23 23 24 27 29 30 31 32 32 33 33 33 34 36 38 39 41 43 44 45 46 46 46 45
14 15 14 14 16 18 22 26 30 33 35 34 33 31 27 24 23 22 21 19 17 17 15 13 12 12 14 15 17 20 21 21 23 25 26 28 27 26 28 30 30 31 34 39 45 47 37 28 29 28 28 30 25 22 25 23 19 19 20 20 20 22 23 23 25 27 29 29 30 32 32 33 34 35 37 38 40 42 44 45 46 46 46 46 45 43
14 13 11 13 17 18 19 22 27 31 32 30 31 30 25 22 22 22 20 19 17 17 15 14 12 11 12 15 17 19 20 21 24 27 28 29 28 29 30 29 30 33 37 42 46 45 38 32 26 23 29 32 27 24 25 22 19 19 20 21 21 22 23 25 26 27 27 29 31 32 33 35 37 38 39 40 41 43 44 44 44 43 43 42 42 42
10 9 9 12 16 16 17 20 25 28 28 28 29 27 24 23 24 22 21 19 17 16 16 16 15 14 15 17 18 20 21 24 27 29 30 31 31 31 30 30 32 35 39 44 45 42 38 31 24 22 29 32 28 25 23 21 20 21 22 22 22 24 26 27 28 28 29 31 32 34 35 37 38 38 39 39 40 40 40 40 40 40 40 40 41 42
11 11 11 13 16 18 18 22 27 27 27 28 28 26 24 23 23 22 22 21 19 19 19 20 20 18 17 18 19 21 24 25 27 29 30 31 32 32 31 32 35 39 43 45 44 41 38 31 23 22 28 31 27 24 23 23 24 23 24 25 26 28 29 29 30 31 32 34 35 36 36 37 38 37 37 37 37 37 37 38 39 39 40 41 42 42
12 13 13 13 17 21 20 23 28 28 27 28 26 25 24 21 20 20 20 20 21 21 22 22 22 19 18 18 21 23 25 25 26 27 29 31 32 32 34 36 39 43 43 41 40 39 34 28 26 26 29 30 26 23 24 26 26 26 27 28 28 29 30 32 33 34 35 35 36 36 36 36 36 35 35 35 35 36 37 38 39 40 40 39 39 38
7 9 12 13 17 22 21 23 26 25 25 27 25 23 22 20 19 20 21 21 21 20 20 20 19 19 20 21 23 24 24 25 26 28 30 31 33 34 35 37 40 38 34 32 35 36 32 28 27 25 23 24 24 25 28 29 29 30 29 29 29 30 32 34 35 35 35 35 36 35 35 34 33 33 34 35 36 37 37 37 37 36 35 34 33 32
7 8 11 12 15 20 20 19 21 22 24 24 22 21 20 20 19 18 18 19 19 19 19 19 20 21 22 23 23 24 25 27 28 30 31 32 32 32 32 34 33 30 28 30 33 34 32 27 22 20 20 23 25 27 29 30 30 29 29 30 31 33 35 35 35 35 35 34 34 33 32 33 33 35 36 36 35 34 33 32 32 31 30 30 30 30
10 8 9 12 14 19 20 16 16 19 22 21 20 20 20 20 21 19 18 18 19 21 21 21 22 22 22 23 24 25 27 29 31 32 32 31 31 30 29 31 31 29 30 31 31 31 30 24 21 22 25 26 26 27 29 30 29 29 30 32 34 35 36 36 35 34 32 32 32 32 33 34 35 35 35 33 31 30 29 29 28 28 28 28 28 28
11 9 7 11 13 15 17 14 12 14 17 19 20 19 19 20 21 22 20 19 19 20 20 20 21 22 23 24 25 27 29 32 33 33 32 31 30 29 30 30 30 29 29 29 28 29 28 25 25 26 26 26 26 28 29 29 29 31 34 35 36 37 36 34 33 32 32 32 33 33 34 34 34 32 30 28 27 27 27 27 26 26 26 26 26 26
11 9 6 8 9 10 11 11 10 11 14 18 20 19 18 19 21 22 21 19 18 19 19 20 22 23 25 26 27 29 31 32 32 31 30 30 29 29 28 27 27 28 29 28 27 26 26 26 26 26 27 27 27 28 29 30 32 35 36 37 37 35 34 33 33 33 33 33 34 34 33 32 30 28 27 26 26 26 26 25 25 25 24 24 24 24
11 8 7 8 9 9 10 9 10 11 13 17 20 20 19 19 20 21 21 20 20 21 22 23 24 25 27 28 29 31 31 30 29 28 28 27 26 25 26 26 27 28 28 27 25 24 25 26 27 28 28 27 27 28 30 32 35 36 37 36 35 34 34 34 33 33 33 34 33 32 29 27 26 25 25 25 24 24 24 24 24 23 23 23 23 23
14 11 10 11 11 11 10 10 10 11 13 17 19 20 20 20 22 22 22 22 23 24 25 26 27 28 29 31 33 34 32 30 29 27 26 24 23 24 25 25 26 27 27 26 25 24 24 25 28 29 28 27 28 29 32 34 36 36 35 35 34 34 34 34 33 33 32 31 29 27 25 25 24 24 23 23 23 23 23 23 23 23 23 23 23 23
13 13 14 14 13 11 10 11 10 11 14 18 18 18 18 20 22 23 24 25 25 26 27 29 30 31 32 34 35 34 32 30 28 25 23 23 23 23 24 24 25 26 26 26 25 24 24 25 27 27 27 27 28 31 34 35 35 35 34 34 33 33 33 33 32 30 28 26 24 24 24 23 23 22 22 22 22 22 22 22 22 22 22 22 22 23
12 12 15 17 16 14 12 11 11 12 15 16 16 16 16 18 20 22 24 25 27 28 30 30 31 33 34 34 33 31 30 28 26 24 23 23 23 22 23 24 25 25 26 25 24 23 24 25 25 24 25 27 30 32 34 34 33 33 32 32 32 32 31 30 28 25 23 22 22 23 23 22 22 22 22 21 21 21 21 21 21 21 21 21 22 22
16 15 16 18 18 17 15 13 13 14 14 14 15 15 15 17 20 22 24 25 27 28 29 30 32 34 34 31 29 28 27 26 25 25 24 23 22 22 24 25 25 25 24 23 22 22 23 23 22 23 25 28 31 32 32 31 31 31 31 31 30 29 27 24 22 21 21 21 22 22 22 22 21 21 21 20 20 20 20 20 20 20 20 21 22 23
18 17 18 20 20 18 17 15 15 15 14 14 15 15 15 17 19 21 22 24 25 25 26 29 31 32 30 27 25 24 24 24 25 24 23 22 22 24 25 25 25 24 22 21 21 22 22 21 22 24 27 29 30 30 30 30 30 29 29 28 27 24 22 20 19 19 20 21 21 21 21 21 20 20 19 19 19 19 19 19 20 20 21 22 23 24
19 19 20 21 22 20 18 16 14 13 14 16 16 17 18 19 20 20 21 22 23 24 24 26 26 27 25 23 22 22 23 24 24 22 22 23 24 25 26 25 24 22 21 21 21 20 19 20 23 26 27 28 28 28 28 28 28 27 26 24 21 19 18 18 19 19 20 20 20 20 19 19 19 18 18 19 19 20 20 20 21 21 22 22 23 24
21 20 20 21 21 20 16 13 12 11 13 15 17 18 20 20 21 21 21 21 22 22 22 23 23 24 22 21 22 23 23 23 22 22 23 24 25 27 26 24 22 21 21 22 20 19 19 22 24 26 26 27 27 27 27 26 24 23 21 19 18 17 17 18 19 19 19 19 18 18 18 17 18 18 19 20 21 21 21 21 21 21 21 22 22 24
23 20 20 20 20 19 17 13 12 11 10 11 13 15 16 17 18 19 19 20 21 21 21 22 23 22 21 21 23 24 24 23 22 22 23 24 26 27 26 22 21 21 22 21 19 19 20 23 25 25 25 25 25 25 24 22 20 19 18 17 16 16 17 18 18 18 18 17 16 16 16 17 18 20 21 22 22 22 22 22 22 21 21 21 22 23
25 23 22 21 20 19 18 16 15 13 11 11 12 12 13 15 17 18 18 18 20 21 21 22 21 20 20 21 24 24 23 22 22 23 24 25 26 26 24 22 22 23 22 20 19 20 22 23 24 24 24 24 23 22 20 18 17 16 16 15 15 16 17 17 17 17 16 15 15 16 17 18 19 21 22 23 23 23 22 22 22 22 21 22 22 24
26 25 25 23 21 20 19 18 17 15 14 14 14 14 15 17 18 18 19 19 21 21 22 22 20 19 20 22 24 24 23 22 23 23 25 26 25 24 22 22 23 22 19 18 20 22 23 24 24 23 22 22 20 19 17 16 15 15 14 15 15 16 16 16 15 15 14 14 15 16 18 19 20 21 23 24 23 22 22 22 22 22 22 22 22 23
29 29 28 26 24 23 21 20 18 17 17 17 16 16 18 20 21 21 21 22 22 22 21 19 18 19 21 23 23 23 22 22 23 24 25 25 24 21 21 22 22 20 17 18 21 22 23 23 22 21 20 19 17 15 14 14 13 13 14 14 15 15 15 14 14 13 13 15 16 16 17 18 20 22 23 23 22 22 22 22 22 22 22 22 22 23
29 30 30 29 28 27 25 23 21 19 19 19 18 18 19 20 21 22 24 24 24 21 18 17 18 20 22 23 23 23 22 22 23 24 25 23 21 20 21 22 20 18 17 19 21 21 21 21 20 19 18 16 14 13 13 12 12 12 13 14 14 15 14 13 12 12 14 15 15 16 17 18 20 22 23 23 22 21 22 22 22 22 22 22 23 23
25 26 27 28 29 30 29 28 26 23 21 21 19 18 20 22 22 24 24 23 21 20 18 18 20 22 24 24 23 23 22 22 23 24 23 21 20 20 21 20 17 16 18 20 20 21 20 19 17 16 15 13 12 12 11 11 11 12 13 13 14 14 14 13 12 13 14 15 15 16 18 19 21 22 23 23 22 22 23 22 23 23 23 23 23 24
21 21 22 25 27 29 29 29 27 25 24 23 22 22 23 23 22 20 18 16 15 17 19 20 22 24 24 24 22 22 22 22 23 23 21 19 20 21 20 17 15 16 18 20 20 20 19 17 15 14 13 11 11 10 10 10 10 11 12 13 13 13 13 13 13 14 15 16 16 17 19 20 22 23 23 23 23 23 23 23 23 23 23 23 24 24
18 17 18 20 23 25 26 27 28 26 26 26 26 25 24 21 18 16 15 14 14 17 19 21 23 24 23 22 21 21 21 22 23 21 19 19 21 20 18 15 15 17 19 19 19 19 17 14 13 13 11 10 10 9 9 9 10 11 12 12 12 13 13 13 14 15 16 16 17 18 20 22 23 23 23 23 23 24 24 24 24 24 24 24 24 24
16 16 15 16 19 22 23 25 26 26 27 27 26 25 24 21 18 18 17 16 17 18 20 21 22 23 22 22 21 21 22 23 22 19 19 20 20 18 15 14 15 18 18 18 19 17 14 13 12 11 10 9 9 9 9 9 9 10 11 12 12 13 13 14 15 16 16 17 18 19 21 22 23 23 23 23 24 24 25 25 25 25 24 24 24 24
16 15 14 14 16 19 20 22 24 25 27 28 26 25 23 21 20 19 18 17 18 19 20 21 22 23 23 22 21 21 22 21 19 18 19 20 19 16 14 14 16 18 18 18 18 16 13 12 11 10 9 9 8 8 9 9 9 10 11 11 12 13 14 14 15 16 17 17 18 20 21 22 22 22 23 24 24 25 25 25 26 25 25 24 24 24
17 17 16 15 17 18 19 21 23 25 26 27 25 24 23 21 20 19 18 18 19 20 21 22 24 24 23 22 21 21 21 19 18 19 20 19 16 14 14 15 17 18 17 18 17 14 12 11 10 9 8 8 8 8 9 9 9 10 11 11 12 13 14 15 15 16 16 17 18 19 20 21 21 22 23 24 24 25 25 25 26 26 25 25 24 24
17 17 17 18 19 20 20 21 23 24 25 25 25 24 23 22 20 20 19 20 20 21 22 23 24 24 22 21 21 21 19 18 18 19 19 16 14 14 14 16 17 17 17 18 16 14 12 11 10 9 9 8 9 9 9 9 10 10 11 12 13 14 15 15 16 16 17 17 18 18 19 20 21 22 23 23 24 24 25 26 26 26 25 24 24 23
17 17 18 18 20 22 22 22 22 23 24 24 23 22 21 20 20 20 20 20 20 21 22 23 23 22 21 21 21 19 18 18 19 18 17 15 14 14 15 16 17 17 17 17 16 13 12 11 11 10 9 9 9 9 9 9 10 11 12 12 13 14 15 16 16 16 16 17 17 18 19 19 20 21 22 23 23 24 24 25 26 26 25 24 23 23
17 18 18 17 17 19 20 20 20 20 21 21 20 20 19 20 20 20 20 20 20 21 22 22 21 21 21 21 20 18 18 18 18 17 15 13 13 14 15 16 16 16 16 17 16 13 12 12 11 10 10 10 10 10 10 10 10 11 13 13 14 15 16 16 16 16 16 16 17 17 18 19 20 21 22 23 23 24 24 25 25 26 25 24 23 23
Wind_Direction
188 188 184 175 177 196 214 209 193 215 214 168 120 103 98 83 77 73 31 356 337 338 351 353 354 5 13 14 14 13 11 9 14 24 31 33 32 31 33 32 26 23 22 20 19 23 24 20 15 10 8 7 4 359 354 352 347 343 337 330 327 326 324 323 321 319 316 313 310 307 305 305 306 304 299 293 290 288 288 290 295 298 299 298 297 298
194 192 177 166 182 203 209 197 189 211 220 213 200 133 120 116 100 51 327 316 323 331 341 347 351 1 5 5 8 9 7 4 4 12 24 28 27 26 27 27 24 20 18 17 18 21 19 16 16 13 9 6 3 359 354 352 348 343 337 331 328 326 324 323 322 321 318 314 310 308 308 309 310 311 309 304 298 294 293 294 295 296 295 293 291 292
204 197 175 170 189 200 199 192 190 203 212 217 205 172 160 160 81 6 333 306 316 334 341 342 341 350 359 359 1 4 6 6 359 1 14 24 25 23 23 22 20 16 14 15 15 13 11 12 13 12 9 5 360 355 351 349 348 344 336 329 326 324 322 320 319 317 314 311 309 309 310 311 312 312 311 309 305 301 298 297 295 293 291 289 287 287
213 198 181 183 192 195 196 192 190 197 206 215 205 193 196 206 251 309 325 315 309 328 332 328 329 339 355 358 359 6 9 4 356 356 6 19 23 20 18 16 15 15 13 13 11 9 9 9 7 6 5 3 358 353 348 345 343 341 334 327 322 320 318 316 313 311 310 309 309 309 310 310 310 310 310 309 307 304 301 298 294 291 289 288 287 287
216 195 190 195 195 197 199 195 191 196 205 215 206 202 213 215 250 284 309 311 294 309 315 311 324 334 349 360 358 0 1 356 354 357 2 13 19 14 12 9 9 12 11 10 9 8 7 5 3 1 0 0 357 352 347 342 339 337 332 326 321 317 315 312 310 308 307 306 306 307 307 308 308 309 308 308 308 305 300 297 293 290 288 288 289 290
214 194 195 201 200 202 202 196 194 198 202 208 209 212 220 210 216 291 303 298 284 291 298 301 318 327 341 356 349 347 353 354 354 358 359 6 11 7 4 4 4 5 5 5 5 3 2 360 358 356 355 356 355 351 347 342 337 334 330 325 322 319 316 314 311 307 305 304 304 304 304 304 305 305 306 307 308 305 299 295 292 290 289 289 288 288
211 197 199 204 206 208 207 199 196 202 199 200 211 218 224 214 195 239 285 296 287 283 284 295 310 316 330 343 341 346 356 357 353 356 357 359 1 359 358 359 359 358 357 357 358 358 357 356 354 353 352 352 351 349 346 341 336 333 329 324 322 320 318 316 314 311 308 305 303 302 302 302 302 302 303 305 306 304 297 291 289 289 288 287 286 286
211 201 205 209 211 213 211 200 196 207 201 197 211 217 224 224 208 217 252 284 289 282 283 295 307 314 324 334 342 354 359 356 355 354 350 349 351 351 352 354 353 351 350 350 353 354 354 353 351 350 349 348 347 345 343 338 334 331 327 323 320 317 315 315 314 313 311 308 305 304 303 303 302 301 301 301 302 301 295 288 285 286 287 287 288 289
216 206 209 212 214 216 211 196 197 210 205 201 212 217 223 227 220 222 236 265 281 280 285 293 302 315 324 332 347 359 356 352 348 343 340 340 343 344 346 347 346 345 346 346 348 351 350 348 347 346 345 344 342 341 339 334 330 327 324 320 317 315 313 312 312 312 311 310 308 306 304 303 302 301 300 299 299 297 293 287 285 286 287 290 292 294
219 207 209 213 215 216 210 199 202 212 208 206 212 219 227 230 228 232 236 255 276 278 283 289 298 309 316 326 349 356 355 349 330 330 333 332 335 338 341 342 342 342 342 342 345 346 345 344 343 342 340 338 337 337 335 331 326 323 320 316 313 312 311 310 310 310 311 311 310 307 304 302 300 300 299 298 296 295 292 291 291 291 292 293 295 297
225 211 211 216 217 215 211 206 207 212 211 210 214 223 232 233 232 237 242 249 264 274 281 287 297 304 305 315 344 346 351 345 326 324 327 327 328 333 337 340 340 339 337 338 340 340 339 340 340 338 336 333 333 332 330 327 325 322 319 315 310 308 308 308 308 308 310 312 311 309 305 302 301 300 299 298 296 294 294 294 295 295 296 296 297 298
235 221 216 219 219 215 212 211 209 211 215 213 216 229 236 239 238 240 251 254 260 271 279 286 293 295 297 305 323 329 338 334 324 323 324 324 325 331 336 338 337 335 334 335 335 334 334 335 335 333 332 330 329 327 322 321 325 323 319 316 312 308 307 307 306 307 310 311 310 309 307 305 304 304 301 299 297 295 295 296 297 296 296 297 297 298
238 230 221 218 219 216 213 213 211 211 217 216 219 230 237 242 243 245 255 261 266 273 278 285 288 284 286 291 300 317 326 319 318 322 324 324 325 329 334 335 334 332 332 332 330 329 329 330 330 329 328 326 325 322 317 319 326 323 318 317 314 309 307 307 307 309 310 306 304 306 306 305 306 305 302 300 298 296 295 297 297 297 297 297 297 298
237 234 228 220 218 217 214 214 213 213 218 219 222 231 235 238 243 248 256 266 275 282 283 285 282 275 274 281 292 307 314 310 314 318 321 324 324 328 331 330 329 329 330 329 326 325 325 326 326 325 325 325 325 323 319 321 325 322 317 315 312 308 306 306 307 310 309 305 304 303 302 302 303 303 302 300 298 296 295 296 297 297 297 298 298 298
242 240 236 226 220 219 216 216 216 217 219 220 223 230 235 238 244 249 256 267 277 281 280 278 275 270 270 279 290 299 306 308 310 311 316 321 322 324 326 324 324 325 327 326 323 322 323 324 323 323 325 327 328 328 324 320 318 315 315 313 309 305 304 304 306 308 306 303 302 301 301 302 303 302 301 299 298 297 296 295 295 295 297 298 299 298
244 243 239 231 222 218 216 216 217 217 218 219 223 229 236 241 247 252 254 259 262 260 261 264 267 268 268 277 289 297 305 307 306 307 314 317 318 320 321 319 320 322 324 323 320 321 322 319 319 325 329 330 331 330 325 320 314 313 318 314 306 303 302 302 304 306 303 300 300 301 302 304 304 302 301 299 298 297 296 295 294 294 296 298 298 298
238 239 238 235 227 217 215 215 215 214 215 220 226 231 235 241 247 250 249 250 249 246 250 254 258 262 268 279 288 294 301 303 304 308 312 313 315 318 317 316 317 319 321 321 319 321 318 311 318 333 335 330 327 327 328 325 318 318 326 319 306 301 301 300 302 302 297 297 300 303 305 304 304 303 302 300 297 296 295 295 295 295 297 298 298 298
230 234 236 234 226 216 213 214 214 212 214 221 226 228 232 238 243 244 245 247 248 248 250 253 257 263 271 279 284 292 297 300 304 308 308 310 313 315 314 313 315 317 319 319 319 319 312 300 319 335 331 320 317 321 326 325 317 318 326 321 307 300 300 300 302 299 297 300 303 306 306 305 304 304 302 299 297 296 296 297 297 298 299 299 298 298
217 223 229 227 220 213 210 210 211 211 213 217 219 221 227 234 239 242 243 246 251 258 262 263 265 268 273 278 282 290 294 297 302 303 304 308 312 314 313 313 315 316 318 318 317 316 308 296 318 330 324 314 310 312 321 324 316 315 320 319 309 302 302 302 302 302 303 306 307 307 306 305 304 303 301 299 298 298 298 299 299 299 299 299 299 300
204 212 219 217 212 211 209 207 206 208 212 215 215 220 227 233 236 239 242 244 248 258 267 271 274 277 280 282 285 290 293 296 299 298 302 307 311 313 313 312 313 313 316 317 316 315 311 306 317 326 322 317 313 313 320 321 318 315 315 315 309 305 306 304 303 305 307 307 306 306 305 303 302 300 299 299 299 298 298 298 299 299 299 299 300 301
198 206 210 211 207 206 207 206 203 204 210 215 217 219 223 228 232 236 241 243 243 249 258 263 269 278 284 284 285 289 293 295 295 296 301 306 310 312 312 310 310 312 314 315 314 315 316 313 316 321 318 315 316 319 318 317 321 319 314 313 311 311 311 308 308 311 310 307 305 304 303 301 299 298 298 298 297 297 298 299 300 300 300 300 300 300
186 189 191 200 199 193 195 197 196 199 206 212 213 211 214 224 233 240 246 246 245 249 258 264 271 279 285 286 287 291 294 294 295 298 303 307 309 310 308 306 307 309 311 312 312 316 319 314 310 317 317 314 314 319 319 317 321 320 315 315 315 314 312 311 312 313 310 308 305 303 301 299 299 299 299 300 300 301 301 302 302 302 301 301 301 300
176 177 181 190 189 184 187 190 192 198 205 211 212 210 216 228 237 244 250 251 251 254 260 268 275 280 284 289 293 297 299 299 300 303 305 305 305 304 303 303 304 305 306 308 311 318 321 316 310 314 317 316 315 318 323 322 321 320 318 316 316 314 314 314 314 313 310 308 306 304 303 303 303 304 305 305 306 305 304 304 303 303 302 301 300 300
183 184 182 185 187 187 189 191 195 201 206 211 215 217 224 236 244 247 251 253 254 256 261 269 275 280 285 292 296 298 300 301 305 308 307 305 303 302 302 302 301 301 301 304 311 318 321 317 312 312 313 314 313 314 321 322 319 317 317 316 315 315 315 315 314 313 312 310 308 308 308 308 308 309 309 308 307 306 305 303 303 302 301 301 301 301
177 186 186 188 192 195 197 199 202 206 210 214 222 226 231 241 248 249 250 252 255 260 264 269 274 282 288 292 294 295 298 304 311 314 312 308 306 305 304 303 301 300 303 309 315 318 317 313 312 313 315 317 313 312 318 319 316 315 316 316 315 315 315 316 316 315 313 312 311 311 311 311 311 310 310 309 308 306 305 304 304 304 305 305 306 306
165 173 191 198 200 202 207 214 216 218 219 222 230 236 238 240 240 241 247 252 255 261 266 269 273 281 287 289 291 294 300 307 312 314 313 310 308 308 308 307 306 305 310 315 316 315 314 314 316 317 319 318 312 310 314 315 314 315 315 315 316 317 318 318 317 316 315 314 314 314 314 314 313 312 311 310 309 308 308 308 309 310 311 311 311 311
163 160 191 205 202 203 210 222 232 231 228 233 241 245 246 242 235 236 247 257 260 262 266 271 276 282 285 288 294 299 304 308 310 311 310 309 308 308 308 308 308 308 310 312 313 313 312 314 316 316 316 315 311 310 313 315 316 317 317 318 320 320 320 319 318 317 316 316 316 317 316 316 315 314 314 314 314 314 314 315 316 317 317 317 316 315
170 164 193 210 203 206 214 225 239 238 232 238 245 249 252 250 242 242 252 262 265 263 265 271 277 282 285 290 297 302 305 307 308 307 306 305 305 304 304 304 305 306 307 308 310 311 309 309 312 313 313 313 312 313 316 318 319 319 320 321 321 321 321 320 319 318 319 320 320 319 318 318 318 318 319 320 321 321 321 322 322 322 322 321 321 320
188 181 204 216 211 222 229 231 240 237 230 233 239 244 250 252 251 251 256 261 260 260 265 271 276 281 286 291 296 301 305 306 305 304 302 302 302 302 301 302 303 304 305 307 309 311 309 308 311 313 314 314 315 318 320 320 320 320 320 321 321 322 321 320 321 322 323 322 321 321 321 322 323 325 326 327 326 326 326 326 326 326 325 325 324 323
201 204 233 234 228 237 238 236 240 237 231 231 235 240 243 248 253 256 258 259 258 261 266 270 276 282 286 290 296 302 306 307 305 303 302 302 302 301 301 302 303 304 305 308 311 312 310 309 312 315 318 318 320 321 321 320 319 320 321 322 323 322 321 322 323 324 324 323 323 324 325 327 329 331 331 331 329 329 329 328 329 329 328 328 326 325
216 227 247 246 242 244 242 238 239 238 238 238 240 244 245 246 251 255 256 258 260 263 266 270 276 282 285 290 297 301 303 305 305 303 302 301 300 300 301 303 305 305 307 311 313 312 309 310 314 317 320 321 321 320 320 319 320 321 322 322 322 321 322 323 324 324 324 325 326 329 330 333 334 334 333 332 331 331 331 332 332 332 331 331 330 328
227 240 252 254 252 251 244 236 233 233 237 242 247 252 250 248 250 254 257 261 263 266 271 276 281 284 289 293 296 297 299 301 301 299 298 297 297 299 303 305 307 308 310 313 313 311 311 313 315 317 319 320 320 319 320 320 321 321 321 321 321 322 323 324 325 326 327 329 332 334 336 336 335 335 335 335 335 335 335 336 336 336 336 336 335 333
236 249 257 262 266 267 259 241 230 231 235 242 251 255 253 252 253 257 262 266 269 273 277 282 285 290 294 295 294 295 296 296 294 293 294 296 298 302 306 308 310 310 312 312 311 309 311 313 315 317 318 319 318 319 320 320 320 321 321 322 323 324 325 326 327 330 333 335 336 337 337 336 336 338 340 340 340 340 340 341 342 343 343 344 343 343
240 247 255 266 272 274 269 249 233 236 243 250 255 259 261 262 263 266 268 271 274 278 282 286 289 293 295 295 294 294 294 291 290 293 296 297 301 305 308 310 311 311 311 310 309 309 312 314 316 318 319 318 318 320 320 320 321 322 323 324 325 326 328 330 333 337 339 338 338 337 338 339 342 345 346 346 346 348 349 349 351 351 352 353 352 351
243 249 257 267 271 272 270 258 241 240 249 256 261 266 269 269 271 274 276 277 280 284 288 290 291 292 292 294 294 293 291 292 296 299 299 301 304 307 310 312 312 311 311 310 310 312 314 317 319 319 318 318 319 321 321 322 323 325 325 326 328 330 333 337 340 342 340 338 339 341 344 347 350 352 354 355 356 356 357 357 357 357 356 355 354 353
243 252 258 265 269 271 271 264 250 244 248 253 258 264 266 270 275 281 284 287 289 291 293 292 291 290 291 292 292 291 295 300 303 303 303 304 306 308 311 313 313 311 310 312 314 315 317 319 319 318 319 321 322 323 323 325 326 327 328 330 333 336 339 341 343 342 340 341 345 349 353 355 358 0 1 1 0 358 357 356 355 354 353 352 352 351
242 250 256 260 266 271 272 264 254 251 253 255 259 264 269 276 282 285 288 292 294 295 295 294 292 293 293 292 292 296 302 306 305 304 304 306 308 309 312 314 312 310 312 315 317 318 320 321 320 320 322 324 324 325 326 328 329 330 332 336 339 341 343 344 343 342 345 350 355 358 360 2 3 4 2 0 358 355 354 352 351 350 349 349 350 350
243 246 251 255 261 267 268 262 256 255 257 262 267 271 277 284 288 288 289 293 295 296 295 295 294 292 291 292 296 302 306 306 305 305 306 308 310 311 313 313 312 312 315 317 318 320 322 321 321 324 326 326 326 327 329 331 333 334 338 341 342 344 345 344 344 348 355 359 1 2 3 3 3 1 359 357 355 354 352 351 350 348 348 348 349 349
246 248 248 249 255 263 266 265 264 261 258 259 266 274 282 286 286 286 290 295 296 296 297 297 295 291 290 295 301 306 307 306 305 306 308 310 312 312 313 313 313 314 316 317 318 320 322 323 325 327 327 326 328 330 333 336 337 339 342 344 345 347 347 348 352 358 1 1 1 2 2 1 0 358 355 354 353 352 351 351 350 349 349 348 349 350
246 248 246 247 253 261 266 269 271 271 267 263 265 272 279 282 282 285 291 296 299 299 297 295 293 291 293 299 305 307 306 305 305 307 310 311 311 311 310 310 311 312 313 315 318 321 323 325 327 328 327 327 330 333 337 340 341 343 345 346 348 350 351 354 359 1 359 358 360 360 358 357 356 353 351 351 352 351 351 351 350 350 350 350 350 350
251 251 248 247 252 258 263 266 271 275 274 270 269 272 277 281 283 287 290 295 300 302 297 291 289 291 296 303 307 307 306 304 305 307 311 312 311 308 307 308 309 309 311 316 319 321 323 325 326 326 326 329 332 336 341 343 344 346 349 350 352 354 356 360 1 357 354 355 357 355 353 352 349 347 348 350 351 351 351 351 351 351 350 351 350 351
256 251 248 249 252 256 259 262 266 273 276 274 269 270 275 278 282 287 290 291 295 297 294 289 289 292 297 303 306 306 304 303 305 310 313 312 309 305 305 307 307 308 314 319 321 321 323 323 324 325 327 330 335 340 345 346 346 350 354 355 356 357 358 359 356 350 349 351 351 349 347 345 344 345 347 350 351 352 352 352 352 351 350 350 351 352
258 254 251 251 253 255 258 260 263 267 272 271 266 265 272 278 283 289 290 288 286 288 288 289 290 292 296 300 302 302 302 304 309 313 314 310 305 304 306 306 306 310 316 320 320 320 321 322 324 326 328 332 339 343 345 347 350 355 358 359 358 356 356 354 348 343 344 346 346 344 343 342 343 346 348 350 352 353 353 353 352 351 350 350 351 353
262 259 255 253 253 255 257 258 258 260 264 267 265 266 273 280 286 290 290 284 278 280 284 287 290 293 296 297 299 301 303 307 313 314 311 306 304 304 305 304 305 312 317 318 318 319 319 321 323 325 329 335 340 342 344 348 353 358 0 359 355 353 353 348 342 340 342 343 343 342 342 343 345 348 349 351 353 354 353 353 352 351 350 350 351 352
257 255 251 248 248 248 249 250 253 258 263 266 267 271 280 287 290 291 289 281 276 279 284 288 293 296 297 297 299 303 307 311 314 312 307 304 304 305 304 303 308 315 316 316 317 317 318 320 323 326 331 336 338 339 341 347 353 357 359 357 351 350 350 345 340 340 342 342 342 342 343 345 347 349 350 351 353 353 354 353 352 351 351 350 350 350
248 250 249 245 244 245 246 250 255 259 263 265 269 276 286 291 291 290 286 278 277 283 288 292 297 299 300 300 302 306 310 313 312 309 305 304 305 304 302 304 311 315 315 315 316 316 317 320 323 326 330 331 332 334 337 344 351 354 355 352 348 347 346 343 341 342 342 342 342 342 343 345 348 350 351 351 352 353 353 353 352 352 351 350 349 348
243 247 249 248 248 250 251 254 256 258 261 265 270 276 280 284 287 288 285 281 282 287 290 293 299 301 301 301 303 308 311 312 310 307 305 305 304 301 301 306 313 314 313 315 316 316 317 319 321 322 324 323 324 327 331 340 347 349 349 347 345 343 342 341 343 343 343 343 343 342 343 346 349 351 350 350 351 352 353 353 352 352 352 350 348 347
239 243 245 245 249 252 253 254 256 258 261 265 269 273 276 280 285 288 288 287 288 289 290 294 299 299 298 300 304 308 310 310 308 306 305 304 302 299 301 309 313 312 313 315 317 316 316 315 315 315 315 315 317 320 327 336 341 342 343 342 340 340 340 341 343 344 344 344 343 342 344 347 350 350 349 349 350 352 352 352 352 353 353 351 348 347
236 241 244 246 247 249 250 250 252 254 257 262 267 272 277 280 283 284 286 288 288 288 290 294 295 295 295 300 306 308 309 308 307 306 305 302 298 297 302 310 312 312 314 317 318 315 311 308 307 307 308 309 311 316 325 333 335 336 337 337 338 339 340 341 343 344 344 344 343 343 345 348 349 349 348 348 350 351 350 351 352 354 353 351 349 347
234 238 243 245 245 244 244 245 248 251 255 261 267 271 275 277 278 280 283 284 284 286 288 290 290 292 297 303 307 307 307 306 307 306 302 297 294 297 304 310 312 313 315 318 317 311 304 301 302 303 304 305 307 314 324 330 331 331 331 333 337 339 339 340 342 343 343 343 343 344 346 348 349 348 347 348 349 350 350 350 352 354 354 352 350 350
233 238 244 248 247 244 244 247 250 253 256 260 265 269 271 273 274 276 279 280 282 284 285 286 289 295 300 304 305 305 305 306 307 303 297 292 294 301 308 311 312 313 316 317 314 307 299 298 299 300 301 303 306 314 322 326 327 325 325 329 334 336 336 337 339 341 341 341 342 344 345 346 347 347 346 347 347 348 349 351 352 353 353 352 353 355
Height
5921 5922 5923 5925 5927 5928 5928 5928 5928 5929 5930 5930 5931 5931 5930 5930 5929 5929 5929 5929 5928 5928 5928 5928 5928 5929 5928 5928 5927 5926 5924 5923 5923 5922 5922 5920 5919 5917 5915 5915 5914 5912 5911 5909 5908 5906 5904 5903 5901 5900 5898 5896 5894 5893 5891 5889 5888 5886 5885 5884 5883 5882 5880 5879 5878 5878 5877 5876 5875 5874 5874 5873 5872 5872 5871 5869 5868 5867 5866 5865 5864 5862 5862 5861 5860 5859
5919 5920 5922 5925 5927 5927 5927 5927 5928 5929 5930 5930 5930 5930 5930 5929 5929 5929 5929 5928 5928 5928 5928 5928 5928 5928 5928 5928 5927 5926 5925 5924 5923 5923 5922 5920 5919 5917 5915 5914 5913 5912 5910 5909 5908 5906 5904 5903 5902 5900 5898 5896 5894 5893 5891 5889 5888 5886 5885 5884 5883 5882 5880 5878 5877 5876 5876 5874 5873 5873 5872 5872 5871 5870 5869 5868 5866 5865 5864 5863 5862 5860 5859 5859 5858 5857
5918 5920 5923 5924 5924 5925 5926 5927 5927 5928 5929 5930 5930 5930 5929 5929 5929 5928 5928 5928 5928 5928 5927 5928 5928 5928 5928 5927 5927 5926 5925 5925 5924 5923 5922 5920 5919 5917 5915 5914 5913 5912 5910 5909 5908 5906 5904 5903 5902 5900 5898 5896 5894 5893 5891 5889 5887 5886 5885 5883 5882 5881 5880 5878 5877 5876 5875 5874 5873 5872 5871 5871 5870 5869 5868 5866 5864 5863 5862 5861 5860 5859 5857 5857 5856 5855
5917 5921 5923 5922 5922 5923 5924 5925 5926 5927 5928 5929 5929 5929 5929 5929 5928 5927 5927 5927 5927 5927 5927 5927 5927 5928 5927 5927 5926 5926 5925 5925 5924 5923 5921 5919 5918 5917 5915 5913 5912 5911 5910 5909 5908 5906 5905 5903 5901 5900 5898 5896 5894 5892 5890 5889 5887 5885 5884 5883 5881 5880 5879 5877 5876 5875 5874 5873 5872 5871 5870 5869 5868 5868 5866 5865 5863 5861 5860 5859 5858 5857 5856 5855 5854 5853
5916 5920 5920 5919 5920 5921 5922 5924 5925 5926 5927 5928 5928 5928 5928 5928 5927 5927 5926 5927 5927 5927 5927 5926 5927 5927 5927 5927 5926 5925 5925 5925 5924 5922 5921 5919 5917 5916 5914 5913 5912 5911 5910 5909 5908 5906 5904 5903 5901 5899 5897 5895 5894 5892 5890 5888 5886 5884 5883 5881 5880 5879 5877 5876 5875 5874 5873 5872 5871 5869 5868 5867 5866 5865 5864 5863 5862 5860 5859 5858 5857 5856 5855 5854 5853 5852
5915 5918 5917 5917 5918 5919 5920 5922 5924 5925 5926 5927 5927 5927 5927 5926 5926 5926 5926 5926 5926 5926 5926 5926 5926 5926 5926 5926 5925 5924 5924 5924 5923 5921 5920 5918 5916 5915 5914 5912 5911 5911 5910 5909 5908 5906 5904 5902 5900 5898 5896 5895 5893 5891 5889 5886 5884 5883 5881 5880 5878 5877 5875 5874 5873 5872 5871 5870 5869 5867 5866 5865 5864 5863 5862 5861 5860 5859 5857 5856 5855 5854 5853 5852 5851 5850
5913 5915 5915 5915 5916 5917 5919 5921 5923 5924 5925 5926 5925 5925 5925 5925 5924 5925 5925 5925 5925 5926 5925 5925 5925 5925 5925 5925 5924 5924 5923 5923 5922 5921 5919 5917 5915 5914 5913 5912 5911 5910 5909 5909 5907 5905 5903 5901 5899 5897 5895 5893 5892 5889 5887 5885 5883 5881 5879 5878 5876 5875 5873 5872 5871 5870 5869 5867 5866 5865 5864 5862 5861 5860 5860 5859 5858 5857 5856 5854 5853 5852 5851 5850 5849 5847
5911 5913 5913 5913 5914 5915 5917 5920 5922 5922 5923 5924 5923 5923 5924 5924 5923 5923 5924 5924 5924 5924 5924 5924 5924 5924 5925 5924 5924 5923 5923 5922 5921 5920 5918 5916 5914 5913 5912 5911 5910 5909 5909 5908 5906 5904 5902 5900 5898 5895 5894 5892 5890 5888 5885 5883 5881 5879 5877 5875 5874 5872 5871 5869 5868 5867 5866 5865 5863 5862 5861 5860 5859 5858 5858 5857 5856 5855 5854 5853 5852 5851 5850 5848 5847 5845
5907 5910 5910 5911 5912 5913 5916 5919 5920 5919 5921 5922 5922 5922 5923 5923 5922 5922 5922 5923 5923 5922 5923 5923 5923 5923 5923 5923 5923 5922 5922 5921 5920 5919 5917 5915 5913 5912 5911 5910 5909 5908 5907 5906 5905 5902 5900 5898 5896 5894 5892 5890 5888 5885 5883 5881 5879 5877 5875 5873 5871 5869 5868 5867 5866 5865 5863 5862 5861 5860 5859 5858 5857 5856 5855 5854 5853 5853 5852 5851 5850 5849 5847 5846 5844 5843
5903 5905 5906 5907 5908 5910 5914 5917 5916 5917 5919 5920 5920 5921 5921 5921 5921 5921 5921 5921 5921 5921 5921 5922 5921 5921 5921 5922 5921 5921 5921 5920 5919 5917 5916 5914 5912 5911 5911 5909 5908 5907 5906 5905 5903 5901 5898 5896 5894 5892 5890 5887 5885 5883 5881 5879 5877 5875 5873 5871 5869 5867 5866 5865 5863 5862 5861 5860 5859 5857 5856 5855 5855 5854 5853 5852 5851 5850 5849 5848 5847 5846 5844 5843 5841 5840
5900 5902 5902 5902 5905 5909 5912 5914 5914 5916 5917 5918 5919 5919 5919 5919 5919 5919 5920 5920 5919 5919 5920 5920 5920 5919 5919 5920 5920 5920 5919 5918 5917 5916 5914 5913 5911 5910 5910 5909 5908 5906 5905 5903 5901 5899 5896 5894 5891 5889 5887 5885 5883 5880 5878 5876 5874 5873 5871 5869 5867 5865 5864 5862 5861 5860 5859 5858 5856 5855 5854 5853 5852 5851 5850 5849 5849 5847 5846 5845 5844 5843 5841 5840 5838 5837
5898 5900 5901 5901 5904 5907 5910 5911 5912 5914 5915 5916 5917 5918 5917 5917 5918 5918 5918 5918 5918 5918 5919 5919 5918 5917 5917 5919 5919 5918 5918 5916 5915 5914 5913 5911 5910 5909 5909 5908 5907 5905 5904 5902 5899 5897 5894 5891 5889 5886 5884 5882 5880 5878 5875 5873 5872 5871 5869 5867 5865 5863 5862 5860 5858 5858 5857 5856 5854 5853 5852 5850 5849 5848 5847 5846 5846 5844 5843 5842 5840 5839 5838 5837 5835 5833
5895 5897 5899 5900 5902 5905 5907 5908 5910 5912 5913 5915 5916 5916 5916 5916 5916 5916 5916 5916 5916 5917 5917 5917 5916 5915 5916 5917 5917 5917 5916 5915 5913 5912 5911 5910 5909 5908 5908 5907 5905 5904 5902 5900 5897 5894 5891 5888 5886 5883 5882 5880 5878 5875 5872 5870 5870 5869 5867 5865 5863 5861 5860 5858 5856 5855 5855 5854 5853 5851 5850 5848 5846 5846 5845 5844 5843 5842 5840 5839 5837 5836 5835 5833 5832 5830
5892 5894 5896 5898 5899 5901 5903 5905 5908 5910 5912 5913 5914 5914 5914 5914 5914 5915 5915 5915 5914 5915 5915 5915 5914 5914 5914 5916 5916 5915 5914 5913 5912 5911 5910 5909 5908 5907 5906 5905 5904 5902 5900 5898 5895 5892 5889 5885 5882 5880 5879 5878 5876 5873 5871 5870 5869 5868 5865 5863 5862 5860 5858 5857 5855 5854 5853 5852 5851 5849 5848 5846 5845 5844 5843 5842 5840 5839 5837 5836 5834 5833 5831 5830 5828 5827
5890 5893 5895 5896 5897 5898 5900 5902 5906 5909 5910 5911 5911 5911 5912 5913 5914 5914 5914 5914 5913 5913 5913 5913 5912 5912 5913 5914 5914 5914 5913 5911 5910 5909 5908 5908 5907 5906 5905 5903 5902 5900 5898 5895 5892 5889 5885 5881 5878 5877 5876 5876 5874 5873 5871 5869 5867 5866 5864 5862 5861 5859 5857 5856 5854 5853 5852 5850 5849 5847 5845 5844 5843 5841 5840 5839 5838 5836 5835 5833 5832 5830 5828 5826 5824 5823
5888 5890 5891 5892 5894 5895 5897 5900 5903 5906 5907 5908 5909 5909 5911 5912 5913 5913 5912 5912 5911 5911 5911 5910 5911 5911 5912 5912 5913 5912 5911 5910 5908 5907 5907 5906 5905 5904 5903 5902 5900 5898 5895 5893 5889 5886 5881 5876 5873 5873 5874 5874 5873 5871 5869 5867 5865 5863 5861 5860 5859 5857 5856 5854 5853 5852 5850 5848 5846 5845 5843 5841 5840 5838 5837 5836 5835 5833 5832 5830 5828 5826 5825 5823 5820 5818
5886 5887 5888 5889 5891 5893 5895 5897 5899 5901 5904 5905 5906 5909 5911 5911 5910 5910 5910 5909 5909 5909 5908 5908 5909 5910 5910 5910 5911 5910 5909 5908 5907 5906 5906 5904 5904 5903 5901 5900 5898 5896 5893 5890 5887 5882 5875 5870 5870 5871 5871 5871 5870 5868 5866 5864 5862 5860 5859 5858 5857 5856 5854 5852 5851 5850 5848 5846 5844 5842 5841 5839 5837 5835 5834 5833 5831 5830 5828 5827 5825 5823 5821 5819 5817 5814
5884 5885 5886 5887 5889 5890 5892 5893 5895 5898 5901 5902 5904 5907 5908 5908 5908 5908 5908 5907 5907 5907 5906 5906 5907 5908 5908 5908 5909 5908 5907 5906 5906 5905 5904 5903 5902 5901 5900 5898 5896 5894 5891 5887 5884 5877 5869 5868 5870 5870 5868 5867 5866 5866 5864 5862 5860 5859 5858 5857 5856 5854 5853 5851 5849 5847 5845 5843 5842 5840 5838 5836 5834 5832 5831 5829 5828 5826 5824 5822 5820 5818 5816 5815 5812 5810
5883 5883 5884 5885 5887 5887 5888 5890 5893 5896 5898 5899 5902 5904 5905 5906 5906 5906 5906 5906 5905 5905 5905 5905 5906 5906 5906 5907 5907 5906 5905 5905 5904 5903 5902 5901 5900 5899 5898 5896 5894 5892 5888 5885 5880 5872 5867 5869 5871 5868 5865 5863 5863 5863 5862 5860 5859 5857 5856 5855 5854 5853 5851 5848 5846 5844 5842 5841 5839 5837 5835 5833 5832 5830 5828 5826 5824 5822 5820 5817 5815 5813 5811 5810 5807 5805
5881 5881 5882 5883 5884 5885 5887 5888 5891 5894 5896 5898 5900 5901 5903 5904 5904 5904 5904 5904 5904 5904 5904 5904 5904 5905 5905 5905 5905 5904 5903 5903 5902 5901 5900 5899 5898 5897 5896 5894 5892 5890 5886 5882 5877 5869 5866 5869 5869 5866 5863 5860 5860 5861 5859 5857 5856 5855 5854 5853 5852 5850 5848 5846 5844 5842 5840 5838 5836 5834 5833 5831 5829 5827 5825 5823 5821 5818 5816 5813 5811 5809 5807 5805 5802 5800
5879 5880 5881 5882 5883 5884 5886 5888 5890 5892 5894 5896 5897 5899 5901 5902 5902 5902 5902 5902 5902 5902 5902 5902 5903 5903 5904 5903 5903 5902 5902 5901 5900 5899 5898 5897 5896 5895 5893 5892 5890 5887 5884 5879 5873 5867 5865 5867 5867 5866 5862 5858 5858 5858 5856 5854 5853 5852 5852 5851 5849 5847 5845 5843 5841 5839 5838 5836 5834 5832 5830 5828 5826 5824 5822 5820 5817 5814 5812 5809 5807 5805 5803 5801 5798 5796
5879 5880 5881 5881 5882 5884 5886 5887 5889 5891 5892 5894 5895 5897 5899 5900 5900 5900 5900 5901 5901 5901 5901 5901 5901 5901 5902 5901 5901 5901 5901 5900 5898 5897 5896 5895 5894 5893 5891 5889 5887 5884 5881 5876 5870 5866 5864 5865 5866 5865 5861 5857 5856 5854 5853 5852 5851 5850 5849 5847 5846 5844 5842 5840 5838 5837 5835 5833 5832 5829 5827 5825 5822 5820 5818 5816 5813 5810 5808 5805 5803 5801 5799 5796 5794 5792
5878 5879 5880 5881 5882 5883 5884 5886 5887 5888 5890 5891 5893 5896 5897 5898 5898 5899 5899 5899 5899 5899 5899 5899 5899 5899 5900 5900 5900 5899 5899 5898 5896 5895 5894 5892 5891 5890 5888 5887 5884 5880 5877 5872 5868 5866 5864 5862 5864 5864 5860 5857 5855 5853 5852 5850 5849 5848 5846 5845 5843 5841 5839 5837 5835 5834 5832 5830 5828 5825 5823 5820 5818 5816 5814 5812 5809 5807 5804 5802 5799 5797 5795 5792 5789 5787
5877 5878 5880 5881 5882 5883 5883 5884 5885 5887 5888 5891 5892 5894 5895 5896 5897 5897 5897 5898 5898 5898 5898 5897 5897 5897 5898 5898 5898 5897 5896 5895 5894 5893 5891 5890 5888 5887 5885 5883 5880 5875 5872 5869 5867 5866 5864 5861 5861 5862 5859 5856 5854 5852 5850 5848 5847 5846 5844 5843 5841 5839 5837 5834 5832 5830 5828 5826 5823 5821 5818 5816 5814 5812 5810 5809 5806 5804 5801 5798 5795 5793 5790 5788 5786 5783
5878 5879 5880 5881 5882 5882 5883 5884 5885 5886 5888 5890 5891 5893 5894 5895 5895 5895 5896 5896 5896 5896 5896 5896 5896 5896 5896 5896 5895 5895 5894 5893 5892 5890 5889 5887 5885 5884 5882 5879 5875 5872 5870 5868 5866 5866 5863 5859 5859 5860 5858 5856 5853 5851 5849 5847 5846 5844 5843 5841 5839 5836 5834 5831 5829 5827 5824 5822 5819 5817 5815 5813 5811 5809 5807 5806 5803 5800 5797 5794 5791 5789 5786 5784 5782 5780
5877 5879 5880 5881 5882 5883 5883 5884 5885 5887 5888 5889 5890 5891 5892 5893 5893 5894 5894 5894 5895 5895 5894 5894 5894 5894 5894 5893 5893 5892 5891 5890 5889 5888 5886 5885 5883 5881 5879 5876 5873 5871 5870 5868 5866 5864 5861 5858 5857 5857 5856 5855 5853 5850 5848 5846 5844 5843 5840 5838 5836 5833 5831 5828 5826 5823 5821 5819 5816 5814 5812 5810 5808 5806 5804 5802 5799 5796 5793 5790 5788 5785 5783 5781 5779 5776
5877 5877 5878 5879 5881 5882 5883 5884 5884 5886 5887 5888 5889 5890 5890 5891 5892 5892 5892 5893 5893 5893 5893 5892 5892 5892 5892 5891 5891 5890 5889 5887 5886 5885 5883 5882 5880 5879 5876 5874 5871 5870 5869 5867 5865 5863 5860 5857 5856 5855 5854 5853 5851 5849 5846 5844 5842 5840 5838 5835 5833 5830 5828 5825 5823 5820 5818 5816 5814 5811 5809 5807 5805 5803 5800 5798 5795 5792 5789 5787 5785 5782 5780 5778 5776 5773
5875 5875 5876 5878 5879 5880 5881 5882 5883 5884 5886 5887 5888 5889 5889 5889 5890 5891 5891 5891 5891 5891 5891 5891 5891 5890 5890 5889 5889 5887 5886 5885 5883 5882 5881 5879 5878 5876 5874 5872 5870 5868 5866 5865 5864 5863 5859 5856 5854 5853 5852 5850 5849 5846 5844 5841 5839 5837 5835 5833 5830 5827 5825 5822 5820 5818 5815 5813 5811 5809 5806 5804 5802 5799 5797 5794 5792 5789 5787 5784 5783 5780 5778 5776 5774 5771
5874 5874 5875 5876 5878 5879 5879 5881 5882 5883 5885 5885 5886 5887 5887 5888 5889 5889 5890 5889 5889 5889 5890 5889 5889 5888 5888 5887 5886 5885 5883 5882 5881 5879 5878 5876 5875 5873 5871 5870 5868 5866 5864 5863 5863 5861 5857 5854 5853 5852 5850 5848 5846 5844 5841 5839 5837 5835 5833 5830 5827 5824 5822 5819 5817 5815 5812 5810 5808 5806 5804 5802 5799 5797 5795 5792 5789 5787 5785 5782 5781 5779 5776 5774 5772 5770
5873 5874 5874 5875 5877 5877 5878 5879 5880 5881 5883 5883 5884 5885 5886 5887 5887 5888 5888 5888 5888 5888 5888 5887 5887 5886 5885 5885 5883 5882 5881 5880 5878 5877 5875 5873 5872 5870 5869 5868 5866 5863 5862 5861 5860 5859 5855 5852 5850 5849 5847 5845 5844 5841 5840 5838 5835 5833 5830 5827 5824 5822 5819 5817 5814 5812 5810 5808 5806 5804 5801 5799 5797 5795 5793 5790 5787 5785 5783 5781 5779 5777 5775 5772 5770 5768
5873 5874 5874 5875 5876 5876 5877 5878 5879 5880 5881 5881 5882 5883 5884 5885 5885 5886 5886 5886 5886 5886 5886 5885 5885 5884 5883 5882 5881 5879 5878 5877 5875 5874 5872 5871 5869 5868 5866 5865 5863 5861 5859 5859 5858 5856 5853 5851 5848 5846 5845 5843 5841 5839 5838 5835 5833 5830 5827 5825 5822 5820 5817 5815 5813 5810 5808 5806 5804 5802 5800 5798 5796 5793 5791 5789 5786 5784 5782 5780 5777 5775 5773 5771 5769 5766
5872 5873 5874 5874 5875 5876 5876 5877 5877 5878 5879 5880 5880 5881 5882 5883 5883 5884 5884 5884 5885 5884 5884 5883 5882 5881 5881 5879 5878 5877 5876 5874 5873 5871 5869 5868 5867 5866 5864 5862 5861 5859 5857 5856 5855 5853 5851 5849 5847 5845 5843 5841 5839 5837 5835 5833 5830 5828 5825 5823 5820 5818 5815 5813 5811 5809 5807 5805 5803 5801 5799 5796 5794 5792 5790 5788 5785 5783 5781 5778 5776 5774 5772 5770 5767 5765
5871 5872 5873 5873 5874 5875 5876 5876 5876 5876 5877 5878 5879 5879 5880 5881 5881 5882 5882 5882 5882 5882 5881 5880 5879 5878 5878 5877 5876 5874 5873 5872 5870 5868 5867 5865 5864 5863 5861 5860 5858 5857 5855 5854 5853 5851 5849 5848 5846 5844 5842 5840 5838 5835 5833 5831 5828 5826 5823 5821 5818 5816 5814 5812 5810 5808 5806 5804 5801 5800 5798 5796 5794 5791 5789 5787 5784 5782 5780 5777 5775 5773 5771 5769 5767 5764
5870 5871 5871 5872 5873 5874 5874 5874 5874 5875 5876 5876 5877 5877 5878 5879 5880 5880 5880 5880 5879 5879 5878 5877 5876 5876 5875 5874 5873 5872 5870 5869 5868 5866 5865 5863 5862 5860 5859 5858 5856 5855 5853 5852 5851 5849 5847 5846 5844 5842 5840 5838 5836 5834 5831 5829 5826 5824 5821 5818 5816 5814 5812 5811 5809 5807 5805 5803 5801 5799 5797 5795 5792 5790 5788 5786 5784 5781 5779 5777 5775 5773 5771 5768 5766 5764
5870 5870 5871 5871 5872 5873 5873 5873 5873 5873 5874 5874 5875 5876 5877 5877 5878 5878 5878 5877 5877 5876 5875 5875 5874 5873 5872 5872 5871 5869 5868 5867 5866 5864 5862 5861 5859 5858 5857 5856 5854 5853 5851 5850 5849 5847 5846 5844 5842 5840 5838 5836 5834 5832 5829 5827 5824 5822 5819 5817 5815 5813 5811 5810 5808 5806 5804 5803 5801 5798 5796 5794 5791 5789 5787 5785 5783 5781 5779 5777 5775 5772 5770 5768 5765 5763
5869 5869 5870 5870 5871 5871 5871 5871 5872 5872 5872 5873 5874 5874 5875 5875 5876 5876 5876 5875 5874 5874 5873 5873 5872 5871 5870 5870 5868 5867 5866 5865 5863 5861 5859 5858 5857 5855 5854 5853 5852 5850 5849 5848 5846 5845 5844 5842 5840 5838 5836 5834 5832 5829 5827 5825 5822 5820 5818 5816 5814 5812 5811 5809 5807 5806 5804 5802 5799 5797 5795 5793 5791 5789 5787 5785 5783 5781 5779 5776 5774 5772 5769 5767 5765 5762
5868 5869 5869 5869 5870 5870 5870 5870 5870 5871 5871 5872 5873 5873 5873 5874 5874 5874 5874 5873 5872 5872 5872 5871 5870 5869 5868 5867 5866 5865 5864 5862 5860 5859 5857 5856 5854 5853 5852 5851 5850 5848 5847 5845 5844 5843 5841 5840 5838 5836 5834 5831 5829 5827 5825 5823 5821 5819 5817 5815 5814 5812 5810 5808 5807 5805 5803 5801 5798 5796 5794 5793 5791 5789 5787 5785 5783 5780 5778 5776 5773 5771 5769 5766 5764 5762
5867 5868 5868 5868 5869 5869 5869 5869 5869 5870 5870 5871 5871 5872 5872 5873 5872 5872 5872 5872 5871 5870 5870 5869 5868 5867 5866 5865 5864 5863 5861 5860 5858 5856 5855 5853 5852 5850 5849 5849 5848 5846 5844 5843 5841 5840 5839 5837 5835 5833 5831 5829 5827 5826 5824 5822 5820 5818 5816 5815 5813 5811 5810 5808 5806 5804 5802 5800 5798 5796 5794 5793 5791 5789 5787 5784 5782 5780 5777 5775 5773 5770 5768 5766 5763 5761
5865 5866 5866 5867 5868 5868 5868 5868 5868 5869 5869 5869 5870 5870 5871 5871 5871 5871 5870 5870 5869 5868 5867 5866 5865 5864 5864 5863 5862 5860 5859 5857 5856 5854 5853 5851 5850 5848 5847 5846 5845 5843 5842 5840 5839 5838 5837 5835 5833 5831 5829 5828 5826 5824 5822 5820 5819 5817 5815 5814 5812 5810 5809 5807 5805 5803 5801 5799 5798 5796 5794 5792 5790 5788 5786 5784 5781 5779 5777 5774 5772 5769 5767 5765 5762 5760
5863 5864 5864 5865 5866 5866 5867 5867 5867 5868 5868 5868 5868 5869 5869 5869 5869 5868 5868 5868 5867 5866 5865 5864 5863 5862 5862 5861 5859 5858 5856 5855 5854 5853 5851 5850 5848 5847 5845 5844 5843 5842 5840 5839 5838 5836 5834 5832 5831 5829 5828 5826 5824 5823 5821 5819 5818 5816 5815 5813 5811 5809 5807 5805 5803 5802 5800 5799 5797 5796 5794 5792 5790 5788 5785 5783 5781 5778 5776 5773 5771 5768 5766 5764 5761 5759
5861 5861 5862 5864 5864 5865 5865 5866 5866 5866 5866 5866 5867 5867 5867 5867 5866 5866 5866 5865 5864 5863 5862 5861 5861 5860 5859 5858 5857 5856 5854 5853 5852 5851 5850 5848 5847 5845 5844 5843 5841 5840 5839 5838 5836 5834 5832 5830 5829 5828 5826 5825 5823 5822 5820 5819 5817 5815 5814 5812 5810 5808 5806 5804 5802 5801 5800 5799 5797 5795 5793 5791 5789 5787 5785 5782 5780 5778 5775 5773 5770 5768 5765 5763 5761 5758
5858 5859 5860 5862 5862 5863 5863 5864 5865 5865 5864 5865 5865 5865 5865 5864 5864 5863 5863 5863 5862 5861 5860 5860 5859 5858 5857 5856 5855 5853 5852 5851 5850 5849 5848 5846 5845 5844 5842 5841 5839 5838 5837 5836 5834 5832 5831 5829 5828 5827 5825 5823 5822 5820 5819 5818 5816 5814 5813 5811 5809 5807 5805 5803 5802 5801 5800 5798 5796 5794 5792 5790 5788 5786 5784 5781 5779 5777 5774 5772 5769 5767 5764 5762 5759 5757
5855 5856 5858 5859 5860 5861 5862 5862 5863 5863 5863 5863 5863 5863 5862 5862 5862 5861 5860 5860 5859 5859 5859 5858 5857 5856 5854 5853 5852 5851 5850 5849 5848 5847 5846 5844 5843 5842 5840 5839 5838 5837 5835 5834 5832 5831 5829 5828 5827 5825 5824 5822 5821 5819 5818 5817 5815 5813 5811 5809 5807 5805 5804 5803 5801 5800 5799 5797 5795 5793 5791 5789 5787 5785 5783 5780 5778 5775 5773 5771 5768 5766 5763 5761 5758 5756
5853 5854 5855 5856 5857 5859 5860 5860 5861 5861 5861 5861 5861 5861 5860 5860 5860 5859 5858 5857 5857 5857 5857 5856 5854 5853 5852 5851 5849 5848 5848 5847 5846 5845 5843 5842 5841 5840 5838 5837 5836 5835 5834 5832 5831 5829 5828 5826 5825 5824 5822 5821 5819 5818 5817 5815 5814 5812 5810 5808 5806 5805 5803 5802 5801 5799 5797 5795 5794 5792 5790 5788 5786 5784 5782 5779 5777 5774 5772 5770 5767 5764 5762 5759 5757 5754
5851 5852 5853 5854 5855 5856 5857 5858 5858 5859 5859 5858 5858 5858 5858 5857 5857 5857 5856 5856 5855 5855 5854 5853 5852 5850 5849 5848 5847 5846 5845 5845 5844 5843 5841 5840 5839 5838 5837 5835 5835 5834 5832 5831 5829 5828 5826 5825 5824 5822 5821 5819 5818 5817 5816 5814 5812 5810 5808 5807 5806 5804 5803 5801 5800 5798 5796 5794 5793 5791 5789 5787 5785 5783 5780 5778 5776 5773 5771 5768 5766 5763 5761 5758 5756 5753
5849 5850 5851 5852 5853 5854 5855 5855 5856 5856 5856 5856 5856 5856 5856 5855 5855 5855 5854 5854 5853 5853 5852 5850 5849 5848 5846 5845 5844 5844 5843 5842 5841 5840 5839 5837 5836 5836 5835 5834 5833 5832 5831 5829 5828 5826 5825 5824 5822 5821 5819 5818 5817 5816 5814 5813 5811 5809 5808 5806 5805 5804 5802 5801 5799 5797 5795 5793 5792 5790 5788 5786 5784 5781 5779 5777 5775 5772 5770 5767 5765 5762 5759 5757 5754 5752
5847 5848 5849 5850 5851 5852 5852 5853 5853 5853 5853 5853 5854 5854 5853 5853 5853 5852 5852 5851 5851 5850 5849 5848 5846 5845 5844 5843 5842 5842 5841 5840 5839 5838 5837 5835 5834 5833 5833 5832 5831 5830 5829 5828 5826 5824 5823 5822 5821 5819 5818 5817 5816 5814 5813 5811 5810 5808 5807 5806 5804 5803 5801 5800 5798 5796 5794 5792 5791 5789 5787 5785 5782 5780 5778 5776 5774 5771 5769 5766 5764 5761 5758 5756 5753 5751
5845 5846 5847 5848 5849 5849 5850 5850 5850 5850 5850 5850 5850 5851 5851 5850 5850 5849 5849 5849 5848 5847 5846 5845 5844 5842 5841 5841 5840 5840 5839 5838 5837 5836 5835 5833 5832 5831 5831 5831 5830 5829 5827 5826 5824 5823 5821 5820 5819 5818 5817 5816 5815 5813 5812 5810 5809 5807 5806 5805 5804 5802 5800 5799 5797 5795 5793 5791 5790 5788 5786 5784 5781 5779 5777 5775 5772 5770 5767 5765 5763 5760 5757 5754 5752 5749
5843 5844 5845 5846 5846 5846 5847 5847 5846 5846 5847 5847 5847 5848 5848 5848 5847 5847 5847 5846 5846 5845 5844 5843 5842 5840 5840 5839 5839 5838 5837 5836 5835 5834 5832 5832 5831 5830 5830 5829 5828 5827 5825 5824 5822 5821 5820 5819 5818 5817 5816 5815 5814 5812 5811 5809 5807 5806 5805 5804 5803 5801 5799 5797 5796 5794 5792 5790 5789 5787 5785 5783 5780 5778 5776 5774 5771 5769 5766 5764 5761 5759 5756 5753 5751 5748
5841 5842 5842 5842 5843 5843 5843 5843 5843 5844 5844 5844 5845 5845 5845 5845 5845 5844 5844 5844 5843 5843 5842 5841 5840 5839 5838 5837 5836 5835 5835 5834 5833 5832 5831 5830 5829 5829 5828 5827 5826 5825 5823 5822 5821 5819 5818 5817 5817 5816 5815 5813 5812 5811 5809 5808 5806 5805 5804 5803 5801 5799 5798 5796 5794 5793 5791 5789 5787 5786 5784 5782 5779 5777 5775 5772 5770 5768 5766 5763 5760 5757 5755 5753 5750 5748
5838 5839 5839 5839 5840 5840 5840 5841 5841 5842 5842 5843 5843 5843 5843 5843 5842 5842 5842 5842 5841 5841 5840 5839 5838 5837 5836 5835 5834 5833 5832 5832 5831 5830 5829 5829 5828 5827 5826 5825 5824 5823 5822 5820 5819 5818 5817 5816 5815 5814 5813 5812 5811 5809 5808 5806 5805 5804 5802 5801 5799 5798 5796 5795 5793 5791 5790 5788 5786 5785 5783 5781 5778 5776 5774 5771 5769 5767 5765 5762 5759 5757 5754 5752 5749 5747